SCP
0 0 0 0 0 0 0 0 0 0 0 0 0 0 0 0 0 0 0 0 0 -0 -0 -0 -0 -0 -0 -0 -0 -0 -0 -0 -0 -0 -0 -0 -0 -0 -0 0 0 0 0
0 0 0 0 0 -0 0 0 0 0 0 0 0 0 0 0 0 0 0 0 0 0 -0 -0 -0 -0 -0 -0 -0 -0 -0 -0 -0 -0 -0 -0 -0 -0 -0 -0 0 0 0
0 0 0 0 0 0 0 0 0 0 0 0 0 0 0 0 0 0 0 0 0 0 0 0 -0 -0 -0 -0 -0 -0 -0 -0 -0 -0 -0 -0 -0 -0 -0 -0 0 0 0
0 0 0 0 0 0 0 0 0 0 0 0 0 0 0 0 0 0 0 0 0 0 0 0 0 -0 -0 -0 -0 -0 -0 -0 -0 -0 -0 -0 -0 -0 -0 -0 0 0 0
0 0 0 0 0 0 0 0 0 0 0 0 0 0 0 0 0 0 0 0 0 0 0 0 0 0 -0 -0 -0 -0 -0 -0 -0 -0 -0 -0 -0 -0 -0 -0 0 0 0
0 0 0 0 0 0 0 -0 0 0 0 0 0 0 0 0 0 0 0 0 0 0 0 0 0 0 0 0 0 -0 -0 -0 -0 -0 -0 -0 -0 -0 -0 -0 0 0 0
0 0 0 0 0 0 0 0 0 0 0 0 0 0 0 0 0 0 0 0 0 0 0 0 0 0 0 0 -0 -0 -0 -0 -0 -0 -0 -0 -0 -0 -0 -0 0 0 0
0 0 0 0 0 0 0 0 0 0 0 0 0 0 0 0 0 0 0 0 0 0 0 0 0 0 0 0 0 0 0 -0 -0 -0 -0 -0 -0 -0 -0 -0 -0 0 0
0 0 0 0 0 0 0 0 0 0 0 0 0 0 0 0 0 0 0 0 0 0 0 0 0 0 0 0 0 0 0 0 0 -0 -0 -0 -0 -0 -0 -0 -0 0 0
0 0 0 0 0 0 0 0 0 0 0 0 0 0 0 0 0 0 0 0 0 0 0 0 0 0 0 0 0 0 0 0 0 0 -0 -0 -0 -0 -0 -0 -0 -0 0
0 0 0 0 0 0 0 0 0 0 0 0 0 0 0 0 0 0 0 0 0 0 0 0 0 0 0 0 0 0 0 0 0 0 0 0 -0 -0 -0 -0 -0 0 0
0 0 0 0 0 0 0 0 0 0 0 0 0 0 0 0 0 0 0 0 0 0 0 0 0 0 0 0 0 0 0 0 0 0 0 0 0 0 0 0 0 0 0
0 0 0 0 0 0 0 0 0 0 0 0 0 0 0 0 0 0 0 0 0 0 0 0 0 0 0 0 0 0 0 0 0 0 0 0 0 0 0 0 0 0 0
0 0 0 0 0 0 0 0 0 0 0 0 0 0 0 0 0 0 0 0 0 0 0 0 0 0 0 0 0 0 0 0 0 0 0 0 0 0 0 0 0 0 0
0 0 0 0 0 0 0 0 0 0 0 0 0 0 0 0 0 0 0 0 0 0 0 0 0 0 0 0 0 0 0 0 0 0 0 0 0 0 0 0 0 0 0
0 0 0 0 0 0 0 0 0 0 0 0 0 0 0 0 0 0 0 0 0 0 0 0 0 0 0 0 0 0 0 0 0 0 0 0 0 0 0 0 0 0 0
0 0 0 0 0 0 0 0 0 0 0 0 0 0 0 0 0 0 0 0 0 0 0 0 0 0 0 0 0 0 0 0 0 0 0 0 0 0 0 0 0 0 0
0 0 0 0 0 0 0 0 0 0 0 0 0 0 0 0 0 0 0 0 0 0 0 0 0 0 0 0 0 0 0 0 0 0 0 0 0 0 0 0 0 0 0
0 0 0 0 0 0 0 0 0 0 0 0 0 0 0 0 0 0 0 0 0 0 0 0 0 0 0 0 0 0 0 0 0 0 0 0 0 0 0 0 0 0 0
0 0 0 0 0 0 0 0 0 0 0 0 0 0 0 0 0 0 0 0 0 0 0 0 0 0 0 0 0 0 0 0 0 0 0 0 0 0 0 0 0 0 0
0 0 0 0 0 0 0 0 0 0 0 0 0 0 0 0 0 0 0 0 0 0 0 0 0 0 0 0 0 0 0 0 0 0 0 0 0 0 0 0 0 0 0
0 0 0 0 0 0 0 0 0 0 0 0 0 0 0 0 0 0 0 0 0 0 0 0 0 0 0 0 0 0 0 0 -0 0 0 0 0 0 0 0 0 0 0
0 0 0 0 0 0 0 0 0 0 0 0 0 0 0 0 0 0 0 0 0 0 0 0 0 0 0 0 0 0 0 0 0 0 0 0 0 0 0 0 0 0 0
0 0 0 0 0 0 0 0 0 0 0 0 0 0 0 0 0 0 0 0 0 0 0 0 0 0 0 0 0 0 0 -0 -0 0 0 0 0 0 0 0 0 0 0
0 0 0 0 0 0 0 0 0 0 0 0 0 0 0 0 0 0 0 0 0 0 0 0 0 0 0 0 0 0 0 0 0 0 0 0 0 0 0 0 0 0 0
0 0 0 0 0 0 0 0 0 0 0 0 0 0 0 0 0 0 0 0 0 0 0 0 0 0 0 0 0 0 0 0 0 0 0 0 0 0 0 0 0 0 0
Wind_Speed_500mb
33 35 42 46 57 65 59 48 53 48 44 30 24 23 21 25 23 26 25 24 31 31 33 34 35 35 32 34 33 32 33 30 31 30 30 31 30 29 28 26 25 23 22
29 32 36 33 44 56 58 46 51 52 48 47 37 31 31 25 13 22 24 24 32 32 34 34 35 33 35 32 34 31 31 31 30 28 27 27 27 28 26 24 23 21 19
27 26 30 29 44 55 69 58 60 55 55 54 40 39 36 35 18 25 23 19 34 37 35 34 35 34 34 31 32 31 32 32 30 26 25 24 26 26 25 23 21 19 17
25 27 18 22 24 58 57 69 55 58 61 63 53 40 40 35 28 24 26 15 27 37 35 33 33 35 36 34 32 30 30 31 29 27 23 23 24 24 23 22 20 17 15
19 21 16 19 22 40 62 67 53 64 61 59 51 43 37 36 33 23 20 14 12 25 37 37 37 36 36 35 34 33 32 30 29 27 25 24 24 24 23 22 20 17 15
17 18 20 9 18 38 50 61 59 72 62 57 49 42 36 36 31 25 32 19 19 23 20 30 40 41 39 37 35 34 34 33 29 27 26 26 25 25 24 23 21 19 15
16 19 16 13 17 35 48 67 59 60 64 54 45 40 35 36 38 34 34 30 26 29 27 26 25 36 41 39 37 37 37 35 33 30 27 26 25 25 25 24 22 20 17
23 29 25 25 28 28 37 54 62 91 59 62 55 47 39 40 44 43 37 36 37 35 39 37 35 37 35 39 39 40 41 39 35 33 30 28 27 27 27 25 23 21 19
27 24 37 29 29 25 37 47 66 50 55 67 70 52 35 25 50 49 47 39 41 41 43 43 38 34 36 36 41 42 42 41 39 36 34 32 30 29 28 27 25 23 22
21 31 28 41 31 30 37 39 54 57 65 75 83 83 59 44 41 32 54 47 44 45 44 48 44 37 47 46 40 43 44 44 43 40 38 36 34 31 31 29 27 26 25
16 10 33 31 45 38 32 39 44 57 87 82 86 86 73 56 49 48 45 62 56 53 51 52 50 51 57 57 46 42 39 47 46 44 42 40 39 35 33 31 30 28 27
19 15 20 32 45 37 41 37 32 53 60 85 68 84 88 86 78 67 59 65 68 67 63 60 62 58 51 56 55 54 50 47 50 49 46 45 44 40 37 34 32 30 30
24 19 20 22 31 45 38 38 34 63 61 67 71 83 89 87 84 80 72 55 53 64 70 70 68 63 57 51 52 62 58 51 50 52 51 50 48 44 41 38 35 33 32
34 26 23 18 24 44 40 36 26 41 53 68 69 72 82 91 97 100 97 85 55 58 61 62 66 68 68 59 57 51 58 63 55 53 55 54 52 49 45 42 39 36 33
31 31 24 25 24 34 40 44 45 29 40 55 60 62 82 87 76 94 99 97 86 50 64 63 52 49 57 66 62 61 56 54 56 55 58 58 57 55 50 46 43 41 37
29 29 30 25 26 32 36 49 43 50 44 50 58 58 64 59 67 87 96 91 94 58 48 52 40 42 35 41 63 68 63 56 53 53 58 58 59 57 55 51 48 46 42
28 27 30 28 23 28 28 51 52 43 38 60 51 54 56 49 59 79 85 95 89 69 56 39 46 42 37 42 45 53 59 57 57 56 56 58 60 58 58 56 52 50 48
32 22 24 26 22 23 32 34 55 57 50 42 50 56 63 50 62 56 50 94 97 96 79 73 59 51 31 34 53 53 58 57 54 55 57 57 59 61 60 58 55 52 51
39 25 17 19 20 21 29 27 39 53 53 44 42 60 71 66 60 59 51 59 68 93 83 73 68 48 47 46 37 56 54 58 54 51 51 57 61 61 61 60 59 57 55
40 30 23 17 19 20 22 31 28 44 59 51 41 48 50 59 44 48 54 58 60 73 76 88 80 73 63 58 62 52 52 55 56 57 52 54 58 63 65 66 65 63 60
39 31 25 15 18 22 23 31 32 31 45 62 51 51 49 55 58 61 60 41 45 57 63 98 84 80 72 73 78 76 63 67 48 50 59 59 61 66 70 72 72 70 65
39 37 25 20 20 24 29 34 36 38 39 57 57 43 50 47 49 61 55 60 56 66 69 87 86 90 98 99 96 84 80 71 62 63 58 70 68 64 68 72 69 66 63
35 40 35 29 28 35 27 21 30 34 44 41 35 49 36 42 46 53 56 55 64 67 75 79 91 91 99 106 104 99 96 94 86 85 74 75 80 74 70 69 68 66 65
35 31 38 42 45 44 37 25 13 17 29 41 45 51 45 49 48 51 48 37 43 56 65 97 105 89 101 105 94 106 101 104 100 96 80 74 73 75 76 75 73 71 69
44 35 34 33 36 42 43 33 18 10 9 17 32 37 45 42 56 54 48 40 38 33 45 37 46 83 106 96 104 103 98 99 101 101 102 103 96 73 75 75 72 61 57
40 34 47 46 43 46 50 49 43 32 21 10 8 17 30 49 43 56 53 57 50 44 52 54 39 45 58 63 85 82 73 83 93 81 103 89 108 87 73 74 73 69 58
Wind_Direction_500mb
233 232 229 223 219 209 201 195 198 189 175 187 190 158 184 208 231 243 257 232 169 167 165 162 163 158 160 164 160 162 154 155 155 153 150 149 143 142 138 135 130 126 120
233 238 239 231 220 213 202 201 200 185 181 194 190 195 188 176 229 251 262 207 172 168 167 172 171 168 170 170 166 164 161 162 162 162 158 154 151 149 146 143 140 134 129
238 242 245 235 222 216 208 209 187 184 194 192 192 201 196 189 217 250 258 214 176 171 179 180 178 177 177 181 175 172 172 169 168 170 169 163 158 154 154 153 150 148 140
247 244 255 251 241 219 211 215 196 195 197 197 201 202 197 188 194 223 251 236 197 182 181 189 186 185 183 188 184 183 178 180 177 180 176 174 169 166 165 164 164 161 155
257 238 258 268 248 217 213 220 208 196 198 192 195 202 200 195 188 218 229 244 213 204 190 192 190 193 191 193 188 187 188 188 188 185 186 184 182 176 176 177 178 177 174
266 238 250 241 244 225 223 214 218 207 202 193 188 192 193 200 205 191 209 223 222 226 234 214 197 201 198 198 195 194 193 195 193 193 194 192 191 187 187 189 191 192 191
232 266 246 252 224 236 224 222 216 201 189 190 185 188 197 188 192 189 209 201 218 217 234 232 237 217 205 205 201 200 201 200 198 198 199 200 199 199 197 199 204 204 205
217 223 260 244 236 240 241 229 221 208 197 202 200 199 193 195 198 195 201 196 210 209 226 235 243 228 213 219 210 208 207 207 204 202 203 208 206 208 206 207 211 217 218
226 218 226 258 239 239 236 253 236 214 218 207 209 198 180 197 194 199 200 204 210 217 217 236 245 216 228 226 223 217 215 214 213 206 207 210 211 214 215 215 217 222 229
254 234 233 244 240 248 239 233 225 236 230 222 210 208 208 206 186 198 208 208 210 224 220 227 240 218 227 242 232 225 222 223 219 214 212 213 216 217 221 220 221 224 231
293 249 228 228 247 249 248 226 251 236 232 227 220 207 212 214 215 210 207 211 211 220 218 223 234 231 217 235 241 231 229 229 228 224 216 217 220 219 224 224 224 226 232
286 280 229 225 226 253 252 252 261 241 235 231 231 230 226 227 222 219 218 220 223 230 225 220 223 234 237 229 223 242 243 237 230 229 225 222 222 221 225 226 227 228 231
306 276 259 233 226 222 262 257 255 248 233 234 242 236 234 237 235 228 214 211 227 229 230 229 226 221 235 241 235 227 241 244 235 231 230 228 225 223 223 227 228 229 232
307 307 279 245 221 231 234 260 261 231 241 245 239 239 240 243 236 236 224 220 223 222 223 235 232 230 221 228 241 242 238 240 240 235 233 233 231 228 224 225 228 230 231
310 307 294 263 248 232 232 237 252 253 237 240 244 246 243 238 229 228 232 231 222 216 212 222 231 238 233 226 222 239 245 244 241 237 233 233 233 233 229 227 228 231 232
310 302 297 289 249 239 236 232 245 245 247 260 244 247 246 247 252 241 224 233 231 214 206 218 231 245 247 234 224 225 240 248 244 237 234 234 234 233 232 231 229 232 234
321 300 292 285 274 242 243 236 235 247 242 246 252 247 247 248 248 246 242 242 223 220 224 214 232 239 256 234 223 227 237 248 249 241 236 234 235 234 233 233 233 234 235
339 314 301 291 289 261 242 239 229 237 243 242 253 256 252 244 227 226 234 230 235 229 230 232 239 241 243 240 220 233 240 246 251 247 237 237 235 235 234 234 235 235 236
354 338 311 308 298 271 246 237 226 232 242 245 255 253 256 248 237 235 252 253 235 226 230 238 234 239 256 251 241 225 235 246 255 252 240 238 238 237 236 236 236 236 238
3 357 350 335 300 282 264 246 235 233 238 244 243 245 254 247 228 249 258 260 247 237 239 232 236 250 253 260 255 254 245 240 247 240 248 241 239 238 237 238 238 238 239
14 358 351 338 308 300 293 256 244 235 230 229 237 250 252 244 242 255 253 257 257 257 240 231 231 239 242 246 249 253 246 249 248 255 245 247 244 237 236 236 237 237 238
26 10 11 4 335 329 304 284 265 253 240 231 243 246 239 243 245 254 253 257 263 250 256 251 250 246 245 245 247 251 251 259 257 257 253 250 247 245 242 241 241 241 243
29 25 28 28 23 10 356 322 286 262 250 242 224 221 225 246 252 249 255 260 251 253 261 256 254 259 257 251 244 243 251 252 258 257 258 256 249 245 243 244 243 245 245
24 34 29 34 33 12 5 354 332 281 259 253 255 240 247 248 254 252 255 255 251 248 258 253 244 271 260 250 250 249 250 255 258 265 260 244 245 249 250 252 250 246 245
26 28 34 34 35 24 18 16 6 357 308 270 252 251 247 242 247 247 237 250 247 266 251 256 271 261 259 252 268 265 255 248 250 253 255 247 243 251 247 252 256 252 244
21 14 23 25 26 28 27 26 27 27 25 13 320 264 250 247 244 242 238 243 254 256 263 268 250 264 255 255 257 246 248 240 233 241 245 238 241 241 250 246 248 254 251
Wind_Speed_850mb
33 35 42 46 57 65 59 48 53 48 44 30 24 23 21 25 23 26 25 24 31 31 33 34 35 35 32 34 33 32 33 30 31 30 30 31 30 29 28 26 25 23 22
29 32 36 33 44 56 58 46 51 52 48 47 37 31 31 25 13 22 24 24 32 32 34 34 35 33 35 32 34 31 31 31 30 28 27 27 27 28 26 24 23 21 19
27 26 30 29 44 55 69 58 60 55 55 54 40 39 36 35 18 25 23 19 34 37 35 34 35 34 34 31 32 31 32 32 30 26 25 24 26 26 25 23 21 19 17
25 27 18 22 24 58 57 69 55 58 61 63 53 40 40 35 28 24 26 15 27 37 35 33 33 35 36 34 32 30 30 31 29 27 23 23 24 24 23 22 20 17 15
19 21 16 19 22 40 62 67 53 64 61 59 51 43 37 36 33 23 20 14 12 25 37 37 37 36 36 35 34 33 32 30 29 27 25 24 24 24 23 22 20 17 15
17 18 20 9 18 38 50 61 59 72 62 57 49 42 36 36 31 25 32 19 19 23 20 30 40 41 39 37 35 34 34 33 29 27 26 26 25 25 24 23 21 19 15
16 19 16 13 17 35 48 67 59 60 64 54 45 40 35 36 38 34 34 30 26 29 27 26 25 36 41 39 37 37 37 35 33 30 27 26 25 25 25 24 22 20 17
23 29 25 25 28 28 37 54 62 91 59 62 55 47 39 40 44 43 37 36 37 35 39 37 35 37 35 39 39 40 41 39 35 33 30 28 27 27 27 25 23 21 19
27 24 37 29 29 25 37 47 66 50 55 67 70 52 35 25 50 49 47 39 41 41 43 43 38 34 36 36 41 42 42 41 39 36 34 32 30 29 28 27 25 23 22
21 31 28 41 31 30 37 39 54 57 65 75 83 83 59 44 41 32 54 47 44 45 44 48 44 37 47 46 40 43 44 44 43 40 38 36 34 31 31 29 27 26 25
16 10 33 31 45 38 32 39 44 57 87 82 86 86 73 56 49 48 45 62 56 53 51 52 50 51 57 57 46 42 39 47 46 44 42 40 39 35 33 31 30 28 27
19 15 20 32 45 37 41 37 32 53 60 85 68 84 88 86 78 67 59 65 68 67 63 60 62 58 51 56 55 54 50 47 50 49 46 45 44 40 37 34 32 30 30
24 19 20 22 31 45 38 38 34 63 61 67 71 83 89 87 84 80 72 55 53 64 70 70 68 63 57 51 52 62 58 51 50 52 51 50 48 44 41 38 35 33 32
34 26 23 18 24 44 40 36 26 41 53 68 69 72 82 91 97 100 97 85 55 58 61 62 66 68 68 59 57 51 58 63 55 53 55 54 52 49 45 42 39 36 33
31 31 24 25 24 34 40 44 45 29 40 55 60 62 82 87 76 94 99 97 86 50 64 63 52 49 57 66 62 61 56 54 56 55 58 58 57 55 50 46 43 41 37
29 29 30 25 26 32 36 49 43 50 44 50 58 58 64 59 67 87 96 91 94 58 48 52 40 42 35 41 63 68 63 56 53 53 58 58 59 57 55 51 48 46 42
28 27 30 28 23 28 28 51 52 43 38 60 51 54 56 49 59 79 85 95 89 69 56 39 46 42 37 42 45 53 59 57 57 56 56 58 60 58 58 56 52 50 48
32 22 24 26 22 23 32 34 55 57 50 42 50 56 63 50 62 56 50 94 97 96 79 73 59 51 31 34 53 53 58 57 54 55 57 57 59 61 60 58 55 52 51
39 25 17 19 20 21 29 27 39 53 53 44 42 60 71 66 60 59 51 59 68 93 83 73 68 48 47 46 37 56 54 58 54 51 51 57 61 61 61 60 59 57 55
40 30 23 17 19 20 22 31 28 44 59 51 41 48 50 59 44 48 54 58 60 73 76 88 80 73 63 58 62 52 52 55 56 57 52 54 58 63 65 66 65 63 60
39 31 25 15 18 22 23 31 32 31 45 62 51 51 49 55 58 61 60 41 45 57 63 98 84 80 72 73 78 76 63 67 48 50 59 59 61 66 70 72 72 70 65
39 37 25 20 20 24 29 34 36 38 39 57 57 43 50 47 49 61 55 60 56 66 69 87 86 90 98 99 96 84 80 71 62 63 58 70 68 64 68 72 69 66 63
35 40 35 29 28 35 27 21 30 34 44 41 35 49 36 42 46 53 56 55 64 67 75 79 91 91 99 106 104 99 96 94 86 85 74 75 80 74 70 69 68 66 65
35 31 38 42 45 44 37 25 13 17 29 41 45 51 45 49 48 51 48 37 43 56 65 97 105 89 101 105 94 106 101 104 100 96 80 74 73 75 76 75 73 71 69
44 35 34 33 36 42 43 33 18 10 9 17 32 37 45 42 56 54 48 40 38 33 45 37 46 83 106 96 104 103 98 99 101 101 102 103 96 73 75 75 72 61 57
40 34 47 46 43 46 50 49 43 32 21 10 8 17 30 49 43 56 53 57 50 44 52 54 39 45 58 63 85 82 73 83 93 81 103 89 108 87 73 74 73 69 58
Wind_Direction_850mb
233 232 229 223 219 209 201 195 198 189 175 187 190 158 184 208 231 243 257 232 169 167 165 162 163 158 160 164 160 162 154 155 155 153 150 149 143 142 138 135 130 126 120
233 238 239 231 220 213 202 201 200 185 181 194 190 195 188 176 229 251 262 207 172 168 167 172 171 168 170 170 166 164 161 162 162 162 158 154 151 149 146 143 140 134 129
238 242 245 235 222 216 208 209 187 184 194 192 192 201 196 189 217 250 258 214 176 171 179 180 178 177 177 181 175 172 172 169 168 170 169 163 158 154 154 153 150 148 140
247 244 255 251 241 219 211 215 196 195 197 197 201 202 197 188 194 223 251 236 197 182 181 189 186 185 183 188 184 183 178 180 177 180 176 174 169 166 165 164 164 161 155
257 238 258 268 248 217 213 220 208 196 198 192 195 202 200 195 188 218 229 244 213 204 190 192 190 193 191 193 188 187 188 188 188 185 186 184 182 176 176 177 178 177 174
266 238 250 241 244 225 223 214 218 207 202 193 188 192 193 200 205 191 209 223 222 226 234 214 197 201 198 198 195 194 193 195 193 193 194 192 191 187 187 189 191 192 191
232 266 246 252 224 236 224 222 216 201 189 190 185 188 197 188 192 189 209 201 218 217 234 232 237 217 205 205 201 200 201 200 198 198 199 200 199 199 197 199 204 204 205
217 223 260 244 236 240 241 229 221 208 197 202 200 199 193 195 198 195 201 196 210 209 226 235 243 228 213 219 210 208 207 207 204 202 203 208 206 208 206 207 211 217 218
226 218 226 258 239 239 236 253 236 214 218 207 209 198 180 197 194 199 200 204 210 217 217 236 245 216 228 226 223 217 215 214 213 206 207 210 211 214 215 215 217 222 229
254 234 233 244 240 248 239 233 225 236 230 222 210 208 208 206 186 198 208 208 210 224 220 227 240 218 227 242 232 225 222 223 219 214 212 213 216 217 221 220 221 224 231
293 249 228 228 247 249 248 226 251 236 232 227 220 207 212 214 215 210 207 211 211 220 218 223 234 231 217 235 241 231 229 229 228 224 216 217 220 219 224 224 224 226 232
286 280 229 225 226 253 252 252 261 241 235 231 231 230 226 227 222 219 218 220 223 230 225 220 223 234 237 229 223 242 243 237 230 229 225 222 222 221 225 226 227 228 231
306 276 259 233 226 222 262 257 255 248 233 234 242 236 234 237 235 228 214 211 227 229 230 229 226 221 235 241 235 227 241 244 235 231 230 228 225 223 223 227 228 229 232
307 307 279 245 221 231 234 260 261 231 241 245 239 239 240 243 236 236 224 220 223 222 223 235 232 230 221 228 241 242 238 240 240 235 233 233 231 228 224 225 228 230 231
310 307 294 263 248 232 232 237 252 253 237 240 244 246 243 238 229 228 232 231 222 216 212 222 231 238 233 226 222 239 245 244 241 237 233 233 233 233 229 227 228 231 232
310 302 297 289 249 239 236 232 245 245 247 260 244 247 246 247 252 241 224 233 231 214 206 218 231 245 247 234 224 225 240 248 244 237 234 234 234 233 232 231 229 232 234
321 300 292 285 274 242 243 236 235 247 242 246 252 247 247 248 248 246 242 242 223 220 224 214 232 239 256 234 223 227 237 248 249 241 236 234 235 234 233 233 233 234 235
339 314 301 291 289 261 242 239 229 237 243 242 253 256 252 244 227 226 234 230 235 229 230 232 239 241 243 240 220 233 240 246 251 247 237 237 235 235 234 234 235 235 236
354 338 311 308 298 271 246 237 226 232 242 245 255 253 256 248 237 235 252 253 235 226 230 238 234 239 256 251 241 225 235 246 255 252 240 238 238 237 236 236 236 236 238
3 357 350 335 300 282 264 246 235 233 238 244 243 245 254 247 228 249 258 260 247 237 239 232 236 250 253 260 255 254 245 240 247 240 248 241 239 238 237 238 238 238 239
14 358 351 338 308 300 293 256 244 235 230 229 237 250 252 244 242 255 253 257 257 257 240 231 231 239 242 246 249 253 246 249 248 255 245 247 244 237 236 236 237 237 238
26 10 11 4 335 329 304 284 265 253 240 231 243 246 239 243 245 254 253 257 263 250 256 251 250 246 245 245 247 251 251 259 257 257 253 250 247 245 242 241 241 241 243
29 25 28 28 23 10 356 322 286 262 250 242 224 221 225 246 252 249 255 260 251 253 261 256 254 259 257 251 244 243 251 252 258 257 258 256 249 245 243 244 243 245 245
24 34 29 34 33 12 5 354 332 281 259 253 255 240 247 248 254 252 255 255 251 248 258 253 244 271 260 250 250 249 250 255 258 265 260 244 245 249 250 252 250 246 245
26 28 34 34 35 24 18 16 6 357 308 270 252 251 247 242 247 247 237 250 247 266 251 256 271 261 259 252 268 265 255 248 250 253 255 247 243 251 247 252 256 252 244
21 14 23 25 26 28 27 26 27 27 25 13 320 264 250 247 244 242 238 243 254 256 263 268 250 264 255 255 257 246 248 240 233 241 245 238 241 241 250 246 248 254 251